User: anonymous   Login
Location: Invercargill
(46.4000°S, 168.3500°E)
Time: 21:33:06
(UTC+13:00)
Language:

Cosmos 2360 Rocket - Orbit

View from above orbital plane
View from above orbital plane
View from above satellite
View from above satellite

Ground track
Ground track

The orbit data is extracted from the following two-line orbital elements,

1 25407U 98045B   19317.57717701  .00000203  00000-0  12778-3 0  9993
2 25407  71.0121 353.3855 0009730 298.1248  61.8891 14.15792073100651
Epoch (UTC): 13 November 2019 13:51:08
Eccentricity: 0.0009730
inclination: 71.0121°
perigee height: 832 km
apogee height: 846 km
right ascension of ascending node: 353.3855°
argument of perigee: 298.1248°
revolutions per day: 14.15792073
mean anomaly at epoch: 61.8891°
orbit number at epoch: 10065

The dashed part of the orbit path shows where the satellite is in the earth's shadow,  

DLR